Date String (YYYY-MM-DD hh:mm:ss) UTC,Instrument flags,Ambient pressure (hPa),Sample flow (lpm),Bypass flow (lpm),Sample temperature (°C),Ambient temperature (°C),ASC tube jacket temperature (°C),LED temperature (°C),Box temperature (°C),Sample RH (%),Span deviation,Mass concentration (μg/m³),Mass concentration (μg/m³),Mass concentration (μg/m³)
DateTimeUTC,F1_M11,P_M11,Q1_M11,Q2_M11,T1_M11,T2_M11,T3_M11,T4_M11,T5_M11,U1_M11,ZSPAN_M11,X2_M11,X0_M11,X1_M11
2021-11-16 18:00:00,,0817.5,5.01,0.00,29.3,28.4,00.0,38.3,31.0,07.6,0000.0,0000.62,0002.56,0000.29
2021-11-16 18:01:00,,0817.5,4.99,0.00,29.4,28.4,00.0,38.3,31.1,07.6,0000.0,0000.64,0001.56,0000.29
2021-11-16 18:02:00,,0817.4,5.01,0.00,29.4,28.4,00.0,38.3,31.1,07.6,0000.0,0000.66,0001.63,0000.28
2021-11-16 18:03:00,,0817.4,5.00,0.00,29.4,28.5,00.0,38.3,31.1,07.7,0000.0,0000.66,0001.53,0000.28
2021-11-16 18:04:00,,0817.5,4.99,0.00,29.4,28.5,00.0,38.3,31.2,07.7,0000.0,0000.65,0001.33,0000.28
2021-11-16 18:05:00,,0817.5,4.99,0.00,29.4,28.6,00.0,38.4,31.2,07.7,0000.0,0000.63,0001.31,0000.28
2021-11-16 18:06:00,,0817.5,5.01,0.00,29.4,28.6,00.0,38.4,31.2,07.6,0000.0,0000.62,0001.28,0000.27
2021-11-16 18:07:00,,0817.4,5.01,0.00,29.4,28.6,00.0,38.4,31.2,07.6,0000.0,0000.64,0001.35,0000.28
2021-11-16 18:08:00,,0817.5,5.00,0.00,29.5,28.6,00.0,38.4,31.2,07.6,0000.0,0000.61,0001.24,0000.27
2021-11-16 18:09:00,,0817.5,5.00,0.00,29.5,28.6,00.0,38.4,31.2,07.7,0000.0,0000.55,0001.07,0000.26
2021-11-16 18:10:00,,0817.6,5.00,0.00,29.5,28.7,00.0,38.4,31.2,07.7,0000.0,0000.55,0001.06,0000.25
2021-11-16 18:11:00,,0817.5,4.99,0.00,29.5,28.7,00.0,38.4,31.2,07.7,0000.0,0000.56,0001.13,0000.25
2021-11-16 18:12:00,,0817.4,5.00,0.00,29.5,28.7,00.0,38.4,31.2,07.6,0000.0,0000.55,0001.16,0000.24
2021-11-16 18:13:00,,0817.3,5.00,0.00,29.5,28.7,00.0,38.4,31.3,07.8,0000.0,0000.56,0001.19,0000.25
2021-11-16 18:14:00,,0817.4,5.01,0.00,29.5,28.7,00.0,38.5,31.3,07.7,0000.0,0000.56,0001.22,0000.25
2021-11-16 18:15:00,,0817.3,4.99,0.00,29.6,28.8,00.0,38.5,31.3,07.4,0000.0,0000.56,0001.22,0000.24
2021-11-16 18:16:00,,0817.3,4.99,0.00,29.6,28.8,00.0,38.5,31.3,07.4,0000.0,0000.55,0001.17,0000.25
2021-11-16 18:17:00,,0817.3,5.00,0.00,29.6,28.7,00.0,38.5,31.3,07.4,0000.0,0000.56,0001.19,0000.25
2021-11-16 18:18:00,,0817.3,5.00,0.00,29.6,28.8,00.0,38.5,31.4,07.4,0000.0,0000.54,0001.10,0000.25
2021-11-16 18:19:00,,0817.2,5.00,0.00,29.6,28.8,00.0,38.5,31.3,07.4,0000.0,0000.54,0001.17,0000.25
2021-11-16 18:20:00,,0817.2,5.00,0.00,29.7,28.8,00.0,38.5,31.4,07.4,0000.0,0000.55,0001.27,0000.26
2021-11-16 18:21:00,,0817.2,5.01,0.00,29.7,28.8,00.0,38.6,31.4,07.4,0000.0,0000.56,0001.42,0000.26
2021-11-16 18:22:00,,0817.2,5.00,0.00,29.7,28.8,00.0,38.6,31.4,07.4,0000.0,0000.55,0001.36,0000.26
2021-11-16 18:23:00,,0817.3,5.01,0.00,29.7,28.8,00.0,38.6,31.4,07.4,0000.0,0000.56,0001.38,0000.27
2021-11-16 18:24:00,,0817.1,4.99,0.00,29.7,28.8,00.0,38.6,31.5,07.4,0000.0,0000.57,0001.47,0000.27
2021-11-16 18:25:00,,0817.0,5.00,0.00,29.7,28.9,00.0,38.6,31.4,07.4,0000.0,0000.56,0001.54,0000.27
2021-11-16 18:26:00,,0817.1,5.01,0.00,29.8,28.9,00.0,38.6,31.4,07.4,0000.0,0000.58,0001.66,0000.27
2021-11-16 18:27:00,,0817.1,4.99,0.00,29.8,28.9,00.0,38.7,31.5,07.4,0000.0,0000.60,0002.36,0000.26
2021-11-16 18:28:00,,0817.1,5.00,0.00,29.8,28.9,00.0,38.7,31.5,07.4,0000.0,0000.61,0003.57,0000.26
2021-11-16 18:29:00,,0817.0,5.00,0.00,29.8,28.9,00.0,38.7,31.5,07.5,0000.0,0000.63,0003.71,0000.26
2021-11-16 18:30:00,,0817.0,5.01,0.00,29.8,29.0,00.0,38.7,31.6,07.4,0000.0,0000.62,0003.63,0000.27
2021-11-16 18:31:00,,0817.0,5.00,0.00,29.8,29.0,00.0,38.7,31.6,07.3,0000.0,0000.59,0003.54,0000.26
2021-11-16 18:32:00,,0817.0,4.99,0.00,29.8,29.0,00.0,38.7,31.6,07.3,0000.0,0000.58,0003.39,0000.25
2021-11-16 18:33:00,,0817.0,4.99,0.00,29.9,29.1,00.0,38.8,31.6,07.2,0000.0,0000.58,0003.83,0000.26
2021-11-16 18:34:00,,0817.0,5.01,0.00,29.9,29.1,00.0,38.8,31.6,07.3,0000.0,0000.57,0003.92,0000.25
2021-11-16 18:35:00,,0817.0,5.00,0.00,29.9,29.1,00.0,38.8,31.7,07.3,0000.0,0000.54,0003.80,0000.25
2021-11-16 18:36:00,,0816.9,5.01,0.00,29.9,29.1,00.0,38.8,31.7,07.4,0000.0,0000.55,0003.75,0000.24
2021-11-16 18:37:00,,0817.0,4.99,0.00,29.9,29.1,00.0,38.8,31.7,07.3,0000.0,0000.55,0003.77,0000.25
2021-11-16 18:38:00,,0816.7,5.01,0.00,29.9,29.1,00.0,38.8,31.7,07.2,0000.0,0000.55,0003.34,0000.25
2021-11-16 18:39:00,,0816.8,4.99,0.00,29.9,29.1,00.0,38.9,31.7,07.2,0000.0,0000.54,0002.00,0000.25
2021-11-16 18:40:00,,0817.0,5.00,0.00,30.0,29.2,00.0,38.9,31.7,07.2,0000.0,0000.50,0001.83,0000.24
2021-11-16 18:41:00,,0816.9,5.00,0.00,30.0,29.1,00.0,38.9,31.7,07.3,0000.0,0000.48,0001.74,0000.24
2021-11-16 18:42:00,,0817.0,5.00,0.00,30.0,29.1,00.0,38.9,31.7,07.2,0000.0,0000.50,0001.81,0000.25
2021-11-16 18:43:00,,0816.9,5.01,0.00,30.0,29.1,00.0,38.9,31.7,07.2,0000.0,0000.51,0001.84,0000.25
2021-11-16 18:44:00,,0816.8,5.00,0.00,30.0,29.1,00.0,38.9,31.7,07.3,0000.0,0000.48,0001.40,0000.25
2021-11-16 18:45:00,,0816.8,5.01,0.00,30.0,29.1,00.0,38.9,31.7,07.2,0000.0,0000.49,0001.16,0000.26
2021-11-16 18:46:00,,0816.6,5.00,0.00,30.0,29.1,00.0,39.0,31.7,07.2,0000.0,0000.54,0001.27,0000.27
2021-11-16 18:47:00,,0816.7,5.00,0.00,30.0,29.2,00.0,39.0,31.7,07.2,0000.0,0000.54,0001.28,0000.27
2021-11-16 18:48:00,,0816.8,5.00,0.00,30.0,29.1,00.0,39.0,31.7,07.2,0000.0,0000.54,0001.98,0000.27
2021-11-16 18:49:00,,0816.8,4.99,0.00,30.0,29.1,00.0,39.0,31.7,07.2,0000.0,0000.53,0001.96,0000.27
2021-11-16 18:50:00,,0816.8,5.00,0.00,30.0,29.1,00.0,39.0,31.7,07.3,0000.0,0000.54,0002.04,0000.26
2021-11-16 18:51:00,,0816.5,5.00,0.00,30.0,29.1,00.0,39.0,31.7,07.2,0000.0,0000.57,0002.24,0000.26
2021-11-16 18:52:00,,0816.4,4.99,0.00,30.0,29.1,00.0,39.0,31.7,07.2,0000.0,0000.58,0002.29,0000.26
2021-11-16 18:53:00,,0816.5,5.00,0.00,30.0,29.1,00.0,39.0,31.7,07.2,0000.0,0000.57,0002.22,0000.26
2021-11-16 18:54:00,,0816.5,5.00,0.00,30.1,29.1,00.0,39.0,31.7,07.2,0000.0,0000.58,0002.23,0000.26
2021-11-16 18:55:00,,0816.5,5.01,0.00,30.1,29.1,00.0,39.0,31.8,07.2,0000.0,0000.62,0002.36,0000.26
2021-11-16 18:56:00,,0816.5,5.01,0.00,30.1,29.2,00.0,39.1,31.8,07.3,0000.0,0000.61,0002.48,0000.25
2021-11-16 18:57:00,,0816.6,4.99,0.00,30.1,29.2,00.0,39.1,31.8,07.3,0000.0,0000.57,0002.48,0000.25
2021-11-16 18:58:00,,0816.6,4.99,0.00,30.1,29.2,00.0,39.1,31.8,07.2,0000.0,0000.54,0004.51,0000.24
2021-11-16 18:59:00,,0816.4,5.01,0.00,30.1,29.2,00.0,39.1,31.8,07.3,0000.0,0000.53,0004.44,0000.24
